GW5315 Weather Reports


Display with metric or nautical units.
time (UTC)temp
F
wind
direction
speed
MPH
gust
MPH
rain 1hr
in
rain 24hr
in
rain mn
in
humidity
%
barometer
mb
20260504223647 77 209 1.0 2.0 0.00 0.00 0.00 31 1014.9
20260504223142 77 247 5.0 7.0 0.00 0.00 0.00 31 1015.0
20260504222639 77 221 2.0 2.0 0.00 0.00 0.00 31 1015.1
20260504222136 76 184 4.0 6.0 0.00 0.00 0.00 32 1014.9
20260504221633 76 170 2.0 3.0 0.00 0.00 0.00 32 1014.9
20260504221130 77 190 3.0 3.0 0.00 0.00 0.00 31 1015.0
20260504220626 77 228 4.0 6.0 0.00 0.00 0.00 31 1015.1
20260504220125 77 250 5.0 6.0 0.00 0.00 0.00 30 1015.1
20260504215621 78 176 1.0 1.0 0.00 0.00 0.00 29 1015.1
20260504215118 77 217 3.0 3.0 0.00 0.00 0.00 30 1015.0
20260504214614 78 221 4.0 6.0 0.00 0.00 0.00 29 1015.0
20260504214110 78 251 2.0 3.0 0.00 0.00 0.00 28 1015.1
20260504213607 78 237 3.0 3.0 0.00 0.00 0.00 29 1015.2
20260504213104 78 238 7.0 8.0 0.00 0.00 0.00 28 1015.1
20260504212559 78 170 3.0 5.0 0.00 0.00 0.00 28 1015.2
20260504212057 79 160 5.0 7.0 0.00 0.00 0.00 27 1015.4
20260504211554 78 243 5.0 6.0 0.00 0.00 0.00 27 1015.0
20260504211051 78 246 2.0 2.0 0.00 0.00 0.00 29 1015.3
20260504210548 78 232 4.0 5.0 0.00 0.00 0.00 28 1015.4
20260504210044 78 204 2.0 2.0 0.00 0.00 0.00 29 1015.1
20260504205542 78 226 3.0 3.0 0.00 0.00 0.00 29 1015.0
20260504205040 78 199 2.0 2.0 0.00 0.00 0.00 28 1015.2
20260504204538 79 242 2.0 3.0 0.00 0.00 0.00 29 1015.3
20260504204037 78 204 3.0 5.0 0.00 0.00 0.00 31 1015.4
20260504203534 78 198 2.0 2.0 0.00 0.00 0.00 31 1015.4
20260504203032 78 276 2.0 2.0 0.00 0.00 0.00 33 1015.6
20260504202527 78 210 7.0 9.0 0.00 0.00 0.00 32 1015.7
20260504202024 78 211 3.0 5.0 0.00 0.00 0.00 34 1015.8
20260504201521 78 211 5.0 6.0 0.00 0.00 0.00 33 1015.6
20260504201019 78 276 3.0 6.0 0.00 0.00 0.00 32 1015.3
20260504200515 78 184 5.0 6.0 0.00 0.00 0.00 33 1015.8
20260504200012 78 220 1.0 1.0 0.00 0.00 0.00 33 1015.7
20260504195508 79 247 6.0 7.0 0.00 0.00 0.00 33 1015.9
20260504195005 78 191 2.0 3.0 0.00 0.00 0.00 36 1015.8
20260504194501 78 162 7.0 7.0 0.00 0.00 0.00 32 1015.9
20260504193956 78 246 5.0 6.0 0.00 0.00 0.00 32 1015.9
20260504193454 78 212 2.0 2.0 0.00 0.00 0.00 32 1016.2
20260504192953 77 329 4.0 6.0 0.00 0.00 0.00 31 1016.2
20260504192449 77 155 1.0 2.0 0.00 0.00 0.00 32 1016.3
20260504191948 77 222 5.0 7.0 0.00 0.00 0.00 32 1016.5
20260504191446 77 161 7.0 7.0 0.00 0.00 0.00 30 1016.3
20260504190941 78 222 2.0 3.0 0.00 0.00 0.00 33 1016.2
20260504190437 78 239 4.0 5.0 0.00 0.00 0.00 32 1016.5
20260504185934 77 203 2.0 2.0 0.00 0.00 0.00 34 1016.5
20260504185431 77 214 2.0 2.0 0.00 0.00 0.00 40 1016.4
20260504184927 76 294 1.0 2.0 0.00 0.00 0.00 32 1016.7
20260504184423 77 215 4.0 5.0 0.00 0.00 0.00 32 1016.7
20260504183919 76 142 2.0 2.0 0.00 0.00 0.00 33 1016.6
20260504183416 76 303 4.0 5.0 0.00 0.00 0.00 31 1016.9
20260504182914 76 193 1.0 2.0 0.00 0.00 0.00 32 1016.8
20260504182411 77 224 4.0 5.0 0.00 0.00 0.00 37 1016.9
20260504181908 76 311 3.0 3.0 0.00 0.00 0.00 36 1016.9
20260504181405 76 337 4.0 5.0 0.00 0.00 0.00 32 1017.1
20260504180904 76 108 1.0 2.0 0.00 0.00 0.00 32 1016.9
20260504180402 76 192 3.0 5.0 0.00 0.00 0.00 32 1017.2
20260504175900 74 217 5.0 6.0 0.00 0.00 0.00 34 1017.1
20260504175356 75 237 5.0 6.0 0.00 0.00 0.00 34 1017.0
20260504174854 76 260 1.0 2.0 0.00 0.00 0.00 36 1017.0
20260504174352 74 276 3.0 3.0 0.00 0.00 0.00 36 1017.2
20260504173849 74 296 4.0 6.0 0.00 0.00 0.00 36 1017.3
20260504173345 74 230 2.0 2.0 0.00 0.00 0.00 37 1017.5
20260504172842 74 268 4.0 5.0 0.00 0.00 0.00 36 1017.6
20260504172339 75 166 3.0 3.0 0.00 0.00 0.00 38 1017.3
20260504171835 76 319 1.0 2.0 0.00 0.00 0.00 36 1017.7
20260504171332 75 182 3.0 5.0 0.00 0.00 0.00 39 1017.4
20260504170829 73 261 3.0 3.0 0.00 0.00 0.00 37 1017.7
20260504170326 74 247 2.0 5.0 0.00 0.00 0.00 39 1017.8
20260504160244 70 300 3.0 3.0 0.00 0.00 0.00 39 1018.8
20260504150710 69 329 2.0 5.0 0.00 0.00 0.00 44 1019.3
20260504150207 70 160 2.0 2.0 0.00 0.00 0.00 46 1019.3
20260504141136 65 166 1.0 2.0 0.00 0.00 0.00 62 1019.3
20260504140632 64 172 1.0 1.0 0.00 0.00 0.00 60 1019.0
20260504140128 64 190 2.0 2.0 0.00 0.00 0.00 62 1019.1
20260504130556 57 183 0.0 0.0 0.00 0.00 0.00 71 1019.2
20260504110438 42 196 0.0 0.0 0.00 0.00 0.00 98 1018.9
20260504100401 43 209 0.0 0.0 0.00 0.00 0.00 98 1018.4
20260504081748 44 173 0.0 0.0 0.00 0.00 0.00 94 1018.1
20260504081245 45 203 0.0 0.0 0.00 0.00 0.00 94 1018.2
20260504080741 45 203 0.0 0.0 0.00 0.00 0.00 94 1018.0
20260504080238 45 203 0.0 0.0 0.00 0.00 0.00 94 1017.9
20260504070205 46 201 0.0 0.0 0.00 0.00 0.00 90 1018.0
20260504060126 49 201 0.0 0.0 0.00 0.00 0.00 86 1018.6
20260504050554 50 197 0.0 0.0 0.00 0.00 0.00 84 1018.4
20260504045548 50 197 0.0 0.0 0.00 0.00 0.00 83 1018.5
20260504045043 51 198 0.0 0.0 0.00 0.00 0.00 81 1018.4
20260504044541 51 197 0.0 0.0 0.00 0.00 0.00 81 1018.2
20260504044038 51 197 0.0 0.0 0.00 0.00 0.00 78 1018.3
20260504043535 51 207 0.0 0.0 0.00 0.00 0.00 79 1018.5
20260504043032 51 202 0.0 0.0 0.00 0.00 0.00 78 1018.3
20260504042529 50 198 0.0 0.0 0.00 0.00 0.00 81 1018.5
20260504042026 50 194 0.0 0.0 0.00 0.00 0.00 82 1018.6
20260504041522 50 195 0.0 0.0 0.00 0.00 0.00 82 1018.6
20260504041018 51 195 0.0 0.0 0.00 0.00 0.00 82 1018.6
20260504040516 51 196 0.0 0.0 0.00 0.00 0.00 81 1018.6
20260504040012 51 196 0.0 0.0 0.00 0.00 0.00 80 1018.7
20260504035509 51 196 0.0 0.0 0.00 0.00 0.00 79 1018.9
20260504035005 51 196 0.0 0.0 0.00 0.00 0.00 78 1018.8
20260504034503 51 196 0.0 0.0 0.00 0.00 0.00 78 1018.5
20260504034000 51 194 0.0 0.0 0.00 0.00 0.00 78 1018.7
20260504033458 51 194 0.0 0.0 0.00 0.00 0.00 77 1018.7
20260504032955 51 194 0.0 0.0 0.00 0.00 0.00 76 1018.8
20260504032452 51 195 0.0 0.0 0.00 0.00 0.00 76 1018.7
20260504031948 51 195 0.0 0.0 0.00 0.00 0.00 76 1018.6
20260504031445 52 198 0.0 0.0 0.00 0.00 0.00 75 1018.7
20260504030942 52 190 0.0 0.0 0.00 0.00 0.00 75 1018.6
20260504030439 52 189 0.0 0.0 0.00 0.00 0.00 74 1018.5
20260504025935 52 189 0.0 0.0 0.00 0.00 0.00 73 1018.8
20260504025432 52 190 0.0 0.0 0.00 0.00 0.00 72 1018.7
20260504024929 52 190 0.0 0.0 0.00 0.00 0.00 73 1018.7
20260504024426 52 189 0.0 0.0 0.00 0.00 0.00 72 1018.6
20260504023923 52 190 0.0 0.0 0.00 0.00 0.00 72 1018.6
20260504023419 53 189 0.0 0.0 0.00 0.00 0.00 72 1018.5
20260504022915 53 189 0.0 0.0 0.00 0.00 0.00 71 1018.3
20260504022412 53 189 0.0 0.0 0.00 0.00 0.00 71 1018.7
20260504021908 53 190 0.0 0.0 0.00 0.00 0.00 70 1018.2
20260504021405 53 189 0.0 0.0 0.00 0.00 0.00 70 1018.3
20260504020729 54 189 0.0 0.0 0.00 0.00 0.00 69 1018.1
20260504020226 54 189 0.0 0.0 0.00 0.00 0.00 69 1018.1
20260504015722 54 189 0.0 0.0 0.00 0.00 0.00 68 1018.3
20260504015219 54 189 0.0 0.0 0.00 0.00 0.00 70 1017.9
20260504014714 54 189 0.0 0.0 0.00 0.00 0.00 68 1017.9
20260504014211 54 189 0.0 0.0 0.00 0.00 0.00 67 1018.0
20260504013709 54 190 0.0 0.0 0.00 0.00 0.00 67 1017.6
20260504013206 54 190 0.0 0.0 0.00 0.00 0.00 67 1017.7
20260504012703 55 190 0.0 0.0 0.00 0.00 0.00 66 1017.6
20260504012201 55 189 0.0 0.0 0.00 0.00 0.00 66 1017.7
20260504011658 55 189 0.0 0.0 0.00 0.00 0.00 64 1017.7
20260504011154 55 190 0.0 1.0 0.00 0.00 0.00 64 1017.8
20260504010650 55 190 0.0 1.0 0.00 0.00 0.00 63 1017.5
20260504010145 56 190 1.0 1.0 0.00 0.00 0.00 63 1017.5
20260504005643 57 189 1.0 1.0 0.00 0.00 0.00 62 1017.5
20260504005139 57 189 0.0 1.0 0.00 0.00 0.00 60 1017.6
20260504004638 57 189 0.0 1.0 0.00 0.00 0.00 60 1017.3
20260504004134 58 189 1.0 1.0 0.00 0.00 0.00 58 1017.5
20260504003631 58 192 0.0 0.0 0.00 0.00 0.00 57 1017.5
20260504003128 59 198 1.0 1.0 0.00 0.00 0.00 56 1017.5
20260504002624 59 189 0.0 1.0 0.00 0.00 0.00 56 1017.3
20260504002122 60 195 1.0 1.0 0.00 0.00 0.00 56 1017.4
20260504001620 60 192 0.0 1.0 0.00 0.00 0.00 53 1017.3
20260504001115 61 193 1.0 1.0 0.00 0.00 0.00 51 1017.1
20260504000613 61 191 1.0 1.0 0.00 0.00 0.00 52 1017.3
20260504000110 61 194 1.0 1.0 0.00 0.00 0.00 51 1017.0
20260503235608 62 191 1.0 1.0 0.00 0.00 0.00 50 1017.0
20260503235104 62 194 0.0 0.0 0.00 0.00 0.00 50 1017.0
20260503234603 63 204 1.0 1.0 0.00 0.00 0.00 50 1017.3
20260503234101 64 199 1.0 1.0 0.00 0.00 0.00 47 1017.1
20260503233557 65 197 1.0 1.0 0.00 0.00 0.00 44 1017.0
20260503233053 66 190 1.0 1.0 0.00 0.00 0.00 40 1017.0
20260503232550 66 188 1.0 2.0 0.00 0.00 0.00 37 1017.1
20260503232047 67 219 3.0 3.0 0.00 0.00 0.00 36 1016.9
20260503231545 68 219 1.0 1.0 0.00 0.00 0.00 37 1017.1
20260503231041 68 223 1.0 2.0 0.00 0.00 0.00 37 1016.8
20260503230537 68 212 1.0 1.0 0.00 0.00 0.00 37 1017.1
20260503230035 68 230 1.0 2.0 0.00 0.00 0.00 37 1017.0
20260503225532 69 209 3.0 3.0 0.00 0.00 0.00 35 1017.2
20260503225027 69 213 1.0 1.0 0.00 0.00 0.00 34 1016.9
20260503224525 69 34 1.0 1.0 0.00 0.00 0.00 33 1017.0
20260503224022 70 181 1.0 2.0 0.00 0.00 0.00 33 1017.0